Regional Weather Roundup
Issued by NWS

Home | Current Version | Previous Version | Graphics & Text | Print | Product List | Glossary On
Versions: 1 2 3 4 5 6 7 8 9 10 11 12 13 14 15 16 17 18 19 20 21 22 23 24 25 26 27 28 29 30 31 32 33 34 35 36 37 38 39 40 41 42 43 44 45 46 47 48 49 50
753
ASUS44 KMEG 202010
RWRTN
TENNESSEE HOURLY STATE WEATHER ROUNDUP
NATIONAL WEATHER SERVICE MEMPHIS TN
200 PM CST MON NOV 20 2017

TNZ002-004-019-021-049-052-054-088>092-202100-
WEST TENNESSEE

CITY           SKY/WX    TMP DP  RH WIND       PRES   REMARKS
MEMPHIS INTL   PTSUNNY   54  26  34 S7        30.13F
NWS MEMPHIS      N/A     55 N/A N/A MISG        N/A
JACKSON        SUNNY     55  21  26 SW6       30.12F
DYERSBURG      SUNNY     53  29  39 SE7       30.12F
SOMERVILLE     SUNNY     55  23  28 S6        30.11F
COVINGTON      SUNNY     54  25  32 S7        30.12F
UNION CITY     SUNNY     54  25  32 S8        30.10F
BOLIVAR        SUNNY     55  23  28 SE5       30.11F
PARIS          SUNNY     54  23  30 S7        30.11F
HUNTINGDON     SUNNY     54  23  30 S8        30.11F
LEXINGTON      SUNNY     55  21  26 SW8       30.13F
SELMER         SUNNY     54  23  30 SW5       30.12F
SAVANNAH       SUNNY     55  21  26 S5G12     30.13F
$$

TNZ008-025-027-028-033-062-065-066-202100-
NORTH MIDDLE TENNESSEE

CITY           SKY/WX    TMP DP  RH WIND       PRES   REMARKS
NASHVILLE      CLOUDY    53  23  31 SE5       30.15F
PORTLAND       SUNNY     50  25  37 VRB3      30.13F
CLARKSVILLE    CLOUDY    51  24  34 S8        30.12F
SMYRNA         CLOUDY    53  22  29 CALM      30.16F
COOKEVILLE     SUNNY     54  19  26 CALM      30.13F
GALLATIN       SUNNY     50  25  37 SE5       30.17F
CROSSVILLE     CLOUDY    53  15  22 SE7       30.13F
$$

TNZ061-075-076-078-094-096-097-202100-
SOUTH MIDDLE TENNESSEE

CITY           SKY/WX    TMP DP  RH WIND       PRES   REMARKS
FAYETTEVILLE   SUNNY     55  19  24 VRB6      30.13F
TULLAHOMA      SUNNY     55  18  22 S8        30.13F
WINCHESTER     SUNNY     57  21  24 VRB7      30.13F
MCMINNVILLE    SUNNY     55  23  28 SW6       30.13F
COLUMBIA       SUNNY     55  18  22 SE3       30.12F
SHELBYVILLE    SUNNY     55  27  33 SW5       30.14F
$$

TNZ017-018-042-046-047-202100-
NORTHEAST TENNESSEE

CITY           SKY/WX    TMP DP  RH WIND       PRES   REMARKS
TRI CITIES     MOSUNNY   51  21  30 CALM      30.18F
ELIZABETHTON   SUNNY     54  16  22 VRB5      30.18F
$$

TNZ012-013-036-069-073-074-202100-
CENTRAL EAST TENNESSEE

CITY           SKY/WX    TMP DP  RH WIND       PRES   REMARKS
KNOXVILLE      CLOUDY    50  33  52 NE5       30.17F
OAK RIDGE      CLOUDY    51  28  41 CALM      30.19F
DOWNTOWN KNOXV SUNNY     52  32  46 CALM      30.19F
GATLINBURG     SUNNY     50  30  46 CALM      30.18F
MORRISTOWN     SUNNY     50  27  40 SE6       30.17F
JACKSBORO      SUNNY     50  27  40 VRB5      30.20F
$$

TNZ083-085-099-202100-
SOUTHEAST TENNESSEE

CITY           SKY/WX    TMP DP  RH WIND       PRES   REMARKS
CHATTANOOGA    CLOUDY    53  28  38 SW3       30.18F
$$

SKY/WX REPORTED AS FAIR MEANS FEW OR NO CLOUDS BELOW
12 THOUSAND FEET.





USA.gov is the U.S. government's official web portal to all federal, state and local government web resources and services.